TimeMST,TemperatureF,Dew PointF,Humidity,Sea Level PressureIn,VisibilityMPH,Wind Direction,Wind SpeedMPH,Gust SpeedMPH,PrecipitationIn,Events,Conditions,WindDirDegrees,DateUTC
12:15 AM,24.8,19.4,80,30.24,10.0,NW,9.2,-,N/A,,Clear,310,2012-11-15 07:15:00
12:35 AM,24.8,19.4,80,30.24,10.0,NNW,10.4,-,N/A,,Clear,330,2012-11-15 07:35:00
12:55 AM,24.8,19.4,80,30.25,10.0,NW,9.2,-,N/A,,Clear,310,2012-11-15 07:55:00
1:35 AM,21.2,17.6,86,30.26,10.0,WNW,5.8,-,N/A,,Clear,290,2012-11-15 08:35:00
1:55 AM,21.2,17.6,86,30.28,10.0,Calm,Calm,-,N/A,,Clear,0,2012-11-15 08:55:00
2:15 AM,21.2,17.6,86,30.29,10.0,Calm,Calm,-,N/A,,Clear,0,2012-11-15 09:15:00
2:35 AM,19.4,15.8,86,30.30,10.0,SW,3.5,-,N/A,,Clear,230,2012-11-15 09:35:00
2:55 AM,17.6,15.8,93,30.31,10.0,SW,3.5,-,N/A,,Clear,230,2012-11-15 09:55:00
3:15 AM,15.8,10.4,79,30.31,10.0,South,3.5,-,N/A,,Clear,190,2012-11-15 10:15:00
3:35 AM,14.0,10.4,86,30.31,10.0,South,4.6,-,N/A,,Clear,190,2012-11-15 10:35:00
3:55 AM,14.0,10.4,86,30.31,10.0,South,3.5,-,N/A,,Clear,180,2012-11-15 10:55:00
4:35 AM,10.4,6.8,85,30.32,10.0,SSW,3.5,-,N/A,,Clear,200,2012-11-15 11:35:00
4:55 AM,10.4,3.2,73,30.32,10.0,Calm,Calm,-,N/A,,Clear,0,2012-11-15 11:55:00
5:15 AM,10.4,5.0,79,30.32,10.0,Calm,Calm,-,N/A,,Clear,0,2012-11-15 12:15:00
5:35 AM,12.2,10.4,92,30.33,10.0,Calm,Calm,-,N/A,,Clear,0,2012-11-15 12:35:00
5:55 AM,10.4,8.6,92,30.33,10.0,Calm,Calm,-,N/A,,Clear,0,2012-11-15 12:55:00
6:15 AM,10.4,6.8,85,30.34,10.0,Calm,Calm,-,N/A,,Clear,0,2012-11-15 13:15:00
6:35 AM,8.6,3.2,79,30.34,10.0,Calm,Calm,-,N/A,,Clear,0,2012-11-15 13:35:00
6:55 AM,10.4,6.8,85,30.34,10.0,Calm,Calm,-,N/A,,Clear,0,2012-11-15 13:55:00
7:15 AM,8.6,6.8,92,30.35,10.0,Calm,Calm,-,N/A,,Clear,0,2012-11-15 14:15:00
7:35 AM,10.4,6.8,85,30.36,10.0,Calm,Calm,-,N/A,,Clear,0,2012-11-15 14:35:00
7:55 AM,10.4,8.6,92,30.36,10.0,Calm,Calm,-,N/A,,Clear,0,2012-11-15 14:55:00
8:15 AM,10.4,6.8,85,30.36,10.0,SSW,3.5,-,N/A,,Clear,200,2012-11-15 15:15:00
8:35 AM,14.0,12.2,93,30.36,10.0,SSW,5.8,-,N/A,,Clear,210,2012-11-15 15:35:00
9:15 AM,17.6,12.2,79,30.37,10.0,South,4.6,-,N/A,,Clear,190,2012-11-15 16:15:00
9:35 AM,17.6,14.0,86,30.37,10.0,South,3.5,-,N/A,,Clear,170,2012-11-15 16:35:00
9:55 AM,19.4,17.6,93,30.37,10.0,South,3.5,-,N/A,,Clear,180,2012-11-15 16:55:00
10:15 AM,19.4,17.6,93,30.37,10.0,SW,3.5,-,N/A,,Clear,220,2012-11-15 17:15:00
10:55 AM,24.8,19.4,80,30.35,10.0,South,4.6,-,N/A,,Clear,190,2012-11-15 17:55:00
11:15 AM,26.6,19.4,74,30.34,10.0,South,3.5,-,N/A,,Clear,180,2012-11-15 18:15:00
11:35 AM,26.6,21.2,80,30.34,10.0,South,4.6,-,N/A,,Clear,190,2012-11-15 18:35:00
11:55 AM,26.6,21.2,80,30.33,10.0,SSW,3.5,-,N/A,,Clear,210,2012-11-15 18:55:00
12:15 PM,28.4,24.8,86,30.32,10.0,SSW,3.5,-,N/A,,Clear,200,2012-11-15 19:15:00
12:35 PM,30.2,24.8,80,30.31,10.0,SSW,5.8,-,N/A,,Clear,200,2012-11-15 19:35:00
12:55 PM,30.2,24.8,80,30.30,10.0,SSW,5.8,-,N/A,,Clear,200,2012-11-15 19:55:00
1:15 PM,32.0,24.8,75,30.29,10.0,SSW,6.9,-,N/A,,Clear,200,2012-11-15 20:15:00
1:35 PM,33.8,26.6,75,30.29,10.0,SSW,4.6,-,N/A,,Clear,200,2012-11-15 20:35:00
1:55 PM,33.8,26.6,75,30.28,10.0,SSW,4.6,-,N/A,,Clear,210,2012-11-15 20:55:00
2:15 PM,35.6,28.4,75,30.28,10.0,South,4.6,-,N/A,,Clear,180,2012-11-15 21:15:00
2:35 PM,33.8,26.6,75,30.28,10.0,SSW,3.5,-,N/A,,Clear,210,2012-11-15 21:35:00
2:55 PM,33.8,28.4,81,30.27,10.0,South,5.8,-,N/A,,Clear,190,2012-11-15 21:55:00
3:15 PM,33.8,28.4,81,30.27,10.0,Calm,Calm,-,N/A,,Clear,0,2012-11-15 22:15:00
3:35 PM,33.8,26.6,75,30.27,10.0,Calm,Calm,-,N/A,,Clear,0,2012-11-15 22:35:00
3:55 PM,30.2,24.8,80,30.26,10.0,Calm,Calm,-,0.01,,Clear,0,2012-11-15 22:55:00
4:15 PM,28.4,23.0,80,30.25,10.0,Calm,Calm,-,N/A,,Clear,0,2012-11-15 23:15:00
4:35 PM,26.6,24.8,93,30.25,10.0,Calm,Calm,-,N/A,,Clear,0,2012-11-15 23:35:00
5:15 PM,26.6,26.6,100,30.23,10.0,Calm,Calm,-,N/A,,Clear,0,2012-11-16 00:15:00
5:35 PM,26.6,24.8,93,30.23,10.0,Calm,Calm,-,N/A,,Clear,0,2012-11-16 00:35:00
5:55 PM,24.8,19.4,80,30.23,10.0,Calm,Calm,-,N/A,,Clear,0,2012-11-16 00:55:00
6:15 PM,24.8,21.2,86,30.22,10.0,Calm,Calm,-,N/A,,Clear,0,2012-11-16 01:15:00
6:55 PM,23.0,19.4,86,30.21,10.0,Calm,Calm,-,N/A,,Clear,0,2012-11-16 01:55:00
7:15 PM,21.2,19.4,93,30.21,10.0,Calm,Calm,-,N/A,,Clear,0,2012-11-16 02:15:00
7:35 PM,21.2,17.6,86,30.21,10.0,Calm,Calm,-,N/A,,Clear,0,2012-11-16 02:35:00
7:55 PM,19.4,15.8,86,30.21,10.0,Calm,Calm,-,N/A,,Clear,0,2012-11-16 02:55:00
8:15 PM,21.2,17.6,86,30.21,10.0,Calm,Calm,-,N/A,,Clear,0,2012-11-16 03:15:00
8:35 PM,19.4,17.6,93,30.21,10.0,Calm,Calm,-,N/A,,Clear,0,2012-11-16 03:35:00
8:55 PM,21.2,19.4,93,30.20,3.0,Calm,Calm,-,N/A,,Clear,0,2012-11-16 03:55:00
9:15 PM,19.4,17.6,93,30.20,5.0,Calm,Calm,-,N/A,,Clear,0,2012-11-16 04:15:00
9:55 PM,21.2,21.2,100,30.19,10.0,SSW,5.8,-,N/A,,Clear,200,2012-11-16 04:55:00
10:15 PM,23.0,19.4,86,30.18,10.0,SSW,5.8,-,N/A,,Clear,200,2012-11-16 05:15:00
10:35 PM,21.2,19.4,93,30.17,10.0,Calm,Calm,-,N/A,,Clear,0,2012-11-16 05:35:00
10:55 PM,23.0,21.2,93,30.16,10.0,Calm,Calm,-,N/A,,Clear,0,2012-11-16 05:55:00
11:15 PM,23.0,21.2,93,30.15,10.0,SW,4.6,-,N/A,,Clear,220,2012-11-16 06:15:00
11:35 PM,24.8,21.2,86,30.14,9.0,Calm,Calm,-,N/A,,Clear,0,2012-11-16 06:35:00
11:55 PM,24.8,23.0,93,30.14,10.0,Calm,Calm,-,N/A,,Clear,0,2012-11-16 06:55:00